RH
13 13 12 12 12 12 12 12 12 12 12 12 12 12 11 11 11 10 9 8 7 7 6 6 6 6 5 5 5 5 5 4 5 6 7 9 9 10 11 10 7 7 7 7 8 10 13 14 13 12 11 10 9 10 11 11 10 9 10 11 10 8 8 8 8 8 9 10 10 11 11 12 13 13 14 20 27 31 34 39 40 41 41 42 43 47 50 51
13 12 12 12 12 12 12 12 12 12 12 12 11 11 10 10 10 9 8 8 7 7 6 6 6 6 5 5 5 5 5 4 6 8 8 8 9 9 10 9 7 7 8 8 10 12 14 13 13 12 11 10 9 10 11 11 10 9 11 11 10 9 9 8 7 7 8 9 10 11 12 12 13 14 16 19 21 29 38 39 41 42 41 43 46 48 51 51
14 13 12 11 11 11 11 11 11 11 11 10 10 10 9 9 9 8 8 7 7 7 7 7 6 6 6 5 5 5 4 5 9 11 9 8 9 9 8 9 8 7 9 11 12 12 13 13 13 11 10 10 10 10 10 11 11 9 11 11 10 9 9 8 7 7 8 8 9 11 12 13 14 14 16 18 17 26 39 39 40 44 42 44 46 49 53 51
17 16 14 13 12 11 11 11 11 10 10 10 9 9 9 8 8 8 7 7 7 7 7 7 7 6 6 6 5 5 4 6 11 12 9 8 8 8 7 9 8 7 9 12 14 13 13 13 12 12 10 10 11 11 10 11 11 10 10 10 10 9 8 8 7 8 8 8 9 10 12 13 15 14 15 18 17 23 38 41 40 44 45 45 46 50 51 48
19 18 17 16 14 13 11 11 10 10 10 9 9 9 9 8 8 8 7 7 7 7 7 7 7 6 6 6 6 6 5 9 13 11 9 9 9 8 8 8 8 8 10 12 14 14 13 13 12 12 11 11 11 10 10 10 11 11 9 9 10 8 8 9 8 8 8 8 9 11 12 13 13 14 15 17 18 21 31 39 40 44 47 48 48 48 46 45
20 20 19 18 17 15 13 12 11 10 10 9 9 9 9 8 8 8 7 8 7 7 7 7 7 7 7 7 6 6 5 9 13 11 10 10 10 9 8 8 8 9 12 14 15 14 13 13 12 12 11 11 11 11 11 10 10 10 10 10 10 8 9 9 8 8 8 7 9 12 13 12 13 15 15 17 19 20 25 33 38 43 48 50 49 46 45 45
21 20 20 19 18 16 15 14 12 11 10 9 9 9 9 9 8 8 8 8 8 8 7 7 7 7 7 7 7 8 7 7 8 8 9 10 11 11 9 9 9 10 13 16 15 14 14 13 12 11 10 11 11 11 11 11 10 9 11 11 9 9 9 8 9 8 8 8 9 11 12 12 12 14 15 17 18 20 25 31 37 43 48 49 48 46 44 43
21 21 20 20 18 17 16 15 14 13 11 9 9 9 9 9 9 8 8 8 9 9 9 9 8 8 8 8 9 9 8 7 7 7 9 10 12 12 12 11 11 12 14 16 15 15 14 12 12 11 10 12 11 11 11 10 10 9 10 11 9 9 9 9 9 8 8 9 8 9 11 12 13 14 15 16 18 21 28 33 38 45 48 47 46 46 44 42
21 21 21 20 19 18 16 15 15 14 14 12 10 10 9 9 9 9 9 9 9 10 10 11 10 10 9 9 10 9 7 7 7 9 10 11 11 11 11 12 12 14 16 16 15 15 14 12 11 11 11 11 11 11 10 10 12 10 9 10 9 9 10 10 9 8 9 9 8 8 10 13 13 14 15 16 19 25 31 36 41 46 47 47 45 45 44 43
21 22 21 21 20 19 18 16 16 15 15 15 13 12 11 10 9 9 9 9 9 10 10 10 11 11 10 10 10 9 7 7 6 9 12 12 12 11 11 11 11 14 15 16 15 14 15 14 13 12 12 11 11 12 11 11 13 11 9 9 9 10 10 10 8 8 9 8 8 8 10 13 13 14 17 20 24 29 33 39 42 44 46 46 45 46 46 44
22 22 22 22 21 20 19 18 16 15 14 14 14 13 12 11 10 10 9 9 9 9 9 9 9 10 9 10 10 8 7 7 7 10 13 13 11 11 12 12 12 13 13 13 13 14 15 15 14 13 13 12 12 13 11 10 12 10 10 10 9 9 9 9 9 9 9 8 9 8 10 12 12 14 16 21 27 29 34 40 43 43 44 45 45 47 47 44
22 22 23 23 22 22 20 19 16 14 13 13 14 14 13 13 12 10 9 9 9 9 9 9 9 8 8 9 10 8 7 8 8 9 11 13 12 12 13 13 14 14 13 12 12 13 14 15 15 14 14 13 13 13 12 11 11 10 9 10 11 10 10 10 10 10 9 9 9 9 10 11 11 14 17 21 26 30 35 41 44 44 44 46 46 46 46 43
21 22 23 23 23 22 21 19 17 15 13 13 13 14 14 14 13 12 11 10 9 9 9 9 9 8 9 10 9 8 8 8 8 8 9 12 13 13 13 13 14 14 14 14 13 14 14 14 15 15 14 14 15 15 14 12 10 11 11 11 13 12 11 12 11 10 9 9 9 9 10 12 12 12 16 23 28 30 35 42 44 44 45 45 45 45 46 43
21 22 22 23 23 23 21 20 18 16 14 13 13 13 13 14 13 13 12 12 11 11 10 10 10 10 13 12 10 9 9 9 9 9 9 10 12 14 13 13 13 14 14 14 14 14 14 15 16 16 15 16 17 15 14 14 12 13 14 13 13 13 14 13 11 11 10 10 10 9 11 13 15 13 15 23 30 31 34 41 43 43 44 42 42 43 45 44
20 21 22 23 23 22 22 21 19 17 15 13 12 12 12 13 13 13 12 12 12 12 12 12 12 14 17 14 12 12 12 11 11 12 11 10 10 12 12 13 14 14 14 15 13 12 13 16 17 16 16 16 16 15 16 17 16 16 16 16 14 14 15 13 11 11 11 12 10 10 11 13 15 15 16 22 29 32 35 40 42 40 41 41 41 40 42 44
19 20 22 23 23 23 22 21 20 18 16 14 12 12 11 11 12 12 12 12 13 13 13 15 15 17 17 15 15 15 15 15 15 15 15 11 10 11 12 13 14 14 15 15 13 12 13 15 16 16 17 17 16 17 18 17 17 17 17 19 18 16 16 14 13 12 11 12 11 11 13 15 15 14 15 19 24 29 33 40 43 42 40 40 41 39 39 43
19 21 22 22 22 23 22 22 21 19 16 14 13 12 12 12 12 12 12 13 14 14 14 17 18 18 16 14 15 15 16 17 18 17 16 13 11 12 12 13 15 15 16 16 14 13 14 14 15 15 16 18 19 20 19 18 18 18 18 19 19 18 17 16 14 13 12 13 13 13 14 15 15 14 15 17 20 23 26 36 43 44 43 41 42 40 38 41
20 21 21 22 22 23 23 22 21 19 17 15 14 13 13 13 13 13 15 15 16 16 17 18 18 16 15 13 12 13 16 17 17 17 16 15 14 14 13 13 15 16 15 16 15 14 15 14 13 15 16 17 20 20 20 19 19 21 21 19 20 19 18 17 16 15 14 14 13 14 14 14 14 14 15 16 19 22 22 28 36 41 43 42 41 41 39 39
21 21 21 22 22 22 23 22 21 19 17 15 14 13 14 16 17 18 18 18 19 18 18 19 16 13 14 14 14 14 16 16 15 16 16 15 16 17 15 14 14 16 17 18 18 17 16 16 15 15 17 17 18 19 19 19 19 20 20 19 21 21 20 18 17 16 15 16 15 14 14 14 14 15 16 16 18 21 22 23 26 31 36 37 37 39 41 40
21 21 21 22 22 22 23 22 21 19 17 16 15 15 19 22 21 21 22 21 20 17 16 17 15 13 12 14 15 16 17 16 14 15 16 16 17 18 17 15 14 18 21 21 22 20 16 18 17 15 16 16 17 18 20 21 21 19 19 20 21 21 21 20 19 18 16 16 17 15 15 15 14 15 17 17 17 18 20 22 22 24 27 30 33 35 39 41
22 22 22 22 22 22 23 22 21 20 18 17 16 18 23 22 19 22 23 20 19 18 17 16 16 15 14 14 15 14 15 16 16 17 18 17 18 18 17 16 15 20 23 24 26 22 17 20 19 16 16 17 19 20 21 22 22 21 20 21 21 22 22 20 21 20 16 16 18 18 16 16 15 14 16 18 18 17 17 19 21 22 22 24 28 30 33 39
24 24 24 23 23 23 24 23 22 21 19 17 17 20 23 22 21 22 22 20 19 19 18 18 18 17 15 15 15 13 13 14 14 16 18 19 19 20 19 16 16 21 25 26 27 23 21 21 18 18 18 18 19 20 20 22 23 23 21 20 21 23 23 22 22 20 17 17 18 18 17 17 16 15 16 17 18 17 17 18 19 21 23 23 25 27 29 36
26 26 24 24 24 24 25 25 23 21 19 17 18 22 23 21 21 23 25 24 21 19 19 19 19 18 16 16 16 15 14 13 11 12 16 18 19 21 21 18 17 22 26 26 25 24 24 22 19 20 19 17 18 20 21 24 24 24 22 21 23 24 24 25 25 20 19 18 16 17 17 17 17 16 16 16 17 17 16 17 17 19 22 24 27 27 29 35
27 26 26 26 26 27 27 25 23 20 18 17 19 22 22 21 21 24 27 24 20 19 20 21 20 19 18 18 18 17 15 14 11 11 13 17 19 20 19 18 19 22 26 26 25 24 25 24 21 20 17 17 21 23 23 24 23 23 22 21 23 25 26 27 24 20 19 18 17 17 18 18 18 17 17 17 17 16 15 17 17 17 19 22 26 25 28 36
29 28 29 28 27 28 26 24 22 20 18 19 20 21 22 22 22 24 26 24 23 23 22 23 23 22 21 20 20 20 18 16 13 12 12 14 18 20 20 19 20 23 24 25 26 26 27 26 21 20 18 18 22 24 23 24 21 21 23 21 23 25 24 23 21 20 18 19 20 20 20 21 21 20 20 20 19 17 16 18 17 17 18 19 22 22 25 33
31 30 30 28 27 26 25 26 24 21 20 21 22 23 23 24 23 24 26 25 25 26 26 27 26 24 23 23 24 22 20 18 15 14 13 14 17 21 24 22 21 23 24 25 27 28 28 25 21 22 22 20 22 22 22 23 21 22 24 22 22 21 20 20 20 21 20 21 24 21 20 23 23 23 23 22 21 19 21 22 21 21 20 18 19 21 23 29
31 30 29 27 25 24 26 29 25 22 24 24 23 24 25 25 23 26 30 27 24 26 28 28 27 25 23 25 27 25 23 20 17 15 13 14 19 22 25 25 23 23 24 26 28 28 25 24 23 25 25 23 23 22 23 22 21 23 24 21 20 18 19 20 20 21 22 23 25 21 19 21 21 22 25 26 23 22 26 27 25 26 25 22 20 20 23 31
31 30 28 26 25 24 24 25 22 22 25 24 23 23 25 24 22 28 32 27 24 27 28 27 27 26 24 27 29 26 24 22 21 20 15 15 21 23 24 26 25 24 25 25 28 30 27 25 26 26 26 25 23 22 24 24 23 25 23 20 20 20 20 21 21 23 24 23 25 24 23 23 21 20 24 27 21 23 33 33 28 28 28 27 24 23 25 32
30 28 27 25 25 25 24 24 24 23 22 22 24 24 23 22 23 29 30 26 25 28 28 28 29 27 24 27 29 27 23 23 26 24 18 16 20 23 24 25 26 28 28 26 28 33 30 27 28 28 27 26 24 23 23 24 26 25 23 20 21 22 22 23 23 25 27 25 23 25 27 26 23 20 23 27 23 27 37 37 31 30 29 28 26 26 26 31
28 27 26 25 25 25 25 25 23 21 20 21 25 23 20 22 26 28 27 25 27 28 27 28 29 27 25 26 28 28 25 24 27 26 20 17 18 21 23 25 26 28 30 29 30 33 30 27 27 27 28 27 25 24 24 25 26 24 23 21 23 24 24 26 26 27 31 28 22 24 30 29 25 20 24 32 34 35 36 34 33 31 30 29 27 27 27 30
27 26 26 25 24 24 26 27 22 19 19 20 22 21 20 24 26 25 24 24 25 26 26 26 26 25 25 26 28 29 28 26 26 26 22 18 18 20 22 25 27 28 30 31 30 30 28 27 28 27 28 28 26 25 25 25 25 24 23 24 28 30 29 30 30 31 33 30 27 28 31 31 25 22 29 34 35 34 31 32 35 34 32 30 29 28 28 31
27 26 25 24 24 24 27 28 23 19 18 20 21 20 22 24 23 22 21 22 24 26 24 24 25 24 24 27 29 30 31 29 25 26 24 21 19 19 21 24 26 28 31 31 29 29 28 28 29 29 29 28 27 27 26 24 24 24 24 27 31 31 34 34 33 35 31 29 32 31 30 31 26 28 33 32 31 32 32 34 36 36 36 34 33 32 32 35
27 26 24 23 23 25 27 28 25 21 20 22 22 21 23 24 23 22 20 21 25 26 23 21 22 22 23 26 30 31 34 32 26 26 28 26 24 22 20 21 23 24 29 31 30 31 32 31 30 32 32 29 27 28 29 26 24 25 26 30 31 30 36 36 31 31 29 31 37 33 31 29 25 30 35 29 30 33 34 37 39 39 41 39 38 37 36 38
28 25 24 24 26 29 29 29 26 21 21 22 22 23 24 23 22 23 22 21 21 21 21 20 19 21 23 26 28 30 36 38 30 26 29 30 30 29 25 24 23 22 26 31 32 33 34 34 32 32 31 29 27 27 29 30 29 29 28 31 31 30 35 37 32 30 30 35 40 37 33 29 27 36 38 32 31 32 35 40 41 43 45 45 44 42 41 40
28 26 26 27 30 30 29 29 26 21 21 22 22 24 23 20 20 22 22 19 17 16 17 17 15 19 23 24 25 28 35 43 38 29 29 31 32 33 31 28 25 23 24 29 31 32 34 34 33 33 32 29 28 27 27 31 34 33 30 31 32 31 33 36 36 36 36 37 40 40 35 31 34 39 36 33 33 32 35 39 40 45 48 48 49 50 47 45
29 30 31 30 31 29 25 26 25 21 21 22 23 24 22 19 18 19 20 19 16 14 13 13 13 16 22 24 26 27 31 42 45 36 33 33 34 36 34 31 28 24 24 26 30 31 32 33 32 31 32 29 29 28 27 29 34 34 32 31 31 31 33 37 39 39 36 35 37 38 34 32 37 39 36 34 35 35 38 40 41 47 51 51 51 53 53 52
31 33 34 33 32 30 25 24 23 21 20 21 23 22 18 17 16 14 16 16 14 13 12 13 13 15 20 24 26 28 28 37 43 41 39 38 39 40 38 35 31 25 23 27 31 33 32 34 34 31 32 31 29 29 28 28 32 36 36 33 32 32 33 35 39 40 37 36 37 36 33 34 38 42 45 41 38 40 43 44 47 51 54 54 53 53 56 57
34 35 37 35 35 36 30 24 21 18 17 17 20 19 15 14 13 12 13 13 13 13 13 14 15 14 18 22 26 26 26 34 41 42 45 45 46 47 44 40 37 31 28 30 36 39 35 36 39 35 33 32 30 29 30 30 30 33 36 35 36 39 37 35 37 38 39 39 38 37 35 33 33 41 51 50 47 49 48 49 54 55 55 56 55 53 54 56
36 40 43 39 36 39 36 29 22 17 14 14 16 16 14 14 14 13 15 16 15 17 18 17 15 15 17 20 25 26 25 31 36 40 49 51 51 54 51 49 47 42 38 37 40 43 41 40 44 41 37 34 32 30 31 33 31 30 34 35 37 40 41 42 41 37 39 40 40 41 39 38 39 44 50 51 52 55 53 54 58 56 57 60 59 56 54 54
39 46 49 40 35 38 37 33 29 21 16 17 18 17 17 20 21 19 21 22 21 23 25 23 19 19 20 19 22 26 26 29 30 35 46 50 53 59 58 56 56 52 47 45 45 47 46 45 47 46 42 38 36 34 33 35 34 32 33 33 36 38 38 42 42 39 40 41 44 44 42 47 51 46 45 47 50 55 57 59 59 57 58 61 61 61 57 54
41 51 50 38 36 39 37 36 34 30 27 26 25 22 22 27 28 26 25 24 26 27 27 26 24 24 25 23 22 26 28 29 29 32 42 48 53 62 63 60 60 58 55 53 52 52 51 49 47 47 45 42 43 41 37 37 38 37 37 36 38 41 40 40 42 40 38 37 43 45 44 52 55 46 43 45 47 54 59 60 61 60 60 61 61 63 60 56
43 55 50 39 40 41 39 38 33 32 34 34 32 30 28 29 29 27 26 24 27 30 27 26 25 25 28 27 25 26 29 34 34 36 46 53 54 59 62 62 63 63 62 60 58 56 54 52 50 48 47 47 47 45 41 40 39 39 41 41 41 43 43 43 45 46 41 37 41 43 42 50 55 49 46 45 47 54 58 60 63 64 64 65 66 66 63 60
48 55 47 40 43 42 40 37 30 30 34 31 30 29 28 29 28 28 29 26 28 31 30 30 28 27 29 28 27 27 30 38 41 45 54 57 52 52 57 62 64 64 64 65 64 62 58 54 52 50 49 48 47 45 43 42 40 41 43 42 41 43 44 44 46 48 46 42 43 42 43 51 56 52 49 49 51 55 56 60 64 63 63 64 66 67 64 61
51 50 43 41 44 42 38 34 31 33 32 27 27 28 27 28 28 30 32 31 31 33 34 34 31 29 29 27 28 29 30 36 42 49 57 55 49 48 52 59 63 63 63 66 67 67 63 59 57 55 54 52 50 48 47 46 45 48 48 44 41 41 42 42 43 44 43 42 42 41 47 59 60 53 52 53 56 58 58 61 63 63 65 64 64 68 67 64
46 43 42 43 43 41 38 34 32 31 29 26 28 30 31 31 28 29 32 31 31 32 35 35 32 30 28 27 29 31 31 34 41 50 55 53 50 48 48 53 58 59 61 66 66 65 67 69 65 60 58 57 56 57 57 52 50 51 49 45 44 43 43 42 41 41 41 42 42 40 47 60 61 55 56 58 61 63 65 67 68 67 68 67 66 69 71 69
44 41 42 44 41 39 37 33 30 30 29 30 31 32 35 37 33 30 32 34 33 33 36 36 33 32 32 32 34 35 33 32 37 46 52 52 49 48 49 50 52 54 58 63 65 61 65 73 73 70 66 64 66 68 63 57 56 58 55 49 49 48 46 45 43 45 47 47 45 43 47 55 59 57 58 60 61 66 70 74 75 71 70 70 70 72 73 73
44 43 41 41 39 35 34 30 27 29 30 32 36 38 37 39 38 36 37 38 37 37 37 37 36 37 38 37 37 39 37 33 35 40 46 48 46 46 49 50 56 62 59 57 61 63 65 69 72 76 76 73 74 73 65 60 62 64 61 56 53 51 49 49 48 51 54 51 50 52 52 56 62 63 62 61 63 67 72 76 77 73 71 71 72 72 72 75
40 42 40 40 39 35 33 29 27 30 32 33 38 40 38 38 39 40 40 38 39 39 40 42 41 39 39 38 39 42 41 39 41 42 43 46 47 47 49 50 59 69 63 54 58 65 70 70 68 72 77 76 76 74 68 66 64 63 63 61 57 54 53 54 53 54 56 55 59 66 65 64 66 66 63 62 65 70 75 78 78 75 73 73 74 74 73 76
39 41 38 38 38 34 30 27 27 33 35 36 38 39 38 38 38 40 41 40 42 41 41 47 46 41 39 38 39 44 44 43 47 46 42 46 50 51 54 53 52 56 63 67 66 68 74 74 68 67 72 73 75 75 74 72 68 65 66 65 61 59 57 56 56 54 55 58 64 70 70 67 65 64 65 67 70 74 76 77 78 77 76 77 78 78 77 77
42 42 37 35 33 30 29 28 29 34 34 34 37 37 37 37 37 39 40 41 46 45 44 49 48 43 43 43 42 46 45 44 48 48 45 48 52 51 53 56 51 49 61 77 79 74 75 76 71 68 70 72 73 74 76 77 76 73 72 70 68 67 64 62 60 59 60 63 63 63 66 68 66 66 70 74 76 77 76 76 77 77 78 79 80 81 80 80
42 39 36 36 33 31 33 31 30 34 33 32 35 36 35 36 35 35 37 39 43 44 44 46 47 45 46 46 46 47 45 44 44 44 45 48 51 48 48 54 55 53 58 71 81 81 78 79 79 73 72 75 76 73 74 78 79 78 77 78 78 76 74 70 67 67 69 71 67 64 66 69 68 67 73 79 81 80 79 79 78 77 77 78 79 81 80 79
41 38 35 37 37 33 34 33 30 33 32 29 30 31 32 34 32 31 35 38 38 39 39 41 44 47 48 49 49 47 46 46 45 43 43 45 48 48 47 51 55 55 54 61 75 82 80 80 84 81 77 78 78 74 72 73 78 84 86 86 86 84 81 79 76 73 74 74 72 71 70 69 67 69 75 82 84 83 82 82 81 79 77 78 78 78 77 77